Location: Unspecified
(0.0000°N, 0.0000°E)
Time: 05:44:44
(UTC+02:00)

USA 116 - Visible Passes

Search period start: 01 August 2014 00:00
Search period end: 11 August 2014 00:00
Orbit: 405 x 834 km, 97.9° (Epoch: 18 November)

Date Brightness Start Highest point End Pass type
(mag) Time Alt. Az. Time Alt. Az. Time Alt. Az.
01 Aug 4.2 06:15:16 66° SSE 06:15:59 86° ENE 06:21:10 10° N visible
02 Aug 4.2 06:30:03 55° SW 06:30:45 61° W 06:35:53 10° NNW visible
03 Aug 7.3 05:08:00 10° E 05:10:05 13° ENE 05:12:12 10° NE visible
03 Aug 4.7 06:44:49 37° WSW 06:45:32 39° W 06:50:23 10° NNW visible
04 Aug 6.8 05:22:35 15° ESE 05:24:46 20° ENE 05:28:28 10° NNE visible
04 Aug 5.2 06:59:34 25° WSW 07:00:20 26° W 07:04:38 10° NW visible
05 Aug 6.1 05:37:19 22° ESE 05:39:29 30° ENE 05:44:02 10° NNE visible
05 Aug 5.7 07:14:18 17° WSW 07:15:08 17° W 07:18:30 10° WNW visible
06 Aug 5.4 05:52:02 29° SE 05:54:12 45° ENE 05:59:16 10° N visible
06 Aug 6.1 07:29:01 11° WSW 07:29:55 11° W 07:31:22 10° W visible
07 Aug 4.6 06:06:43 34° SSE 06:08:57 70° ENE 06:14:17 10° N visible
08 Aug 4.3 06:21:22 34° S 06:23:43 77° WSW 06:29:05 10° NNW visible
09 Aug 7.5 05:01:58 10° E 05:03:01 11° ENE 05:04:04 10° ENE visible
09 Aug 4.5 06:35:58 28° SSW 06:38:29 51° WSW 06:43:41 10° NNW visible
10 Aug 7.0 05:14:26 10° ESE 05:17:43 17° ENE 05:21:04 10° NE visible
10 Aug 5.0 06:50:28 20° SSW 06:53:16 33° WSW 06:58:04 10° NW visible
